GW3874 Weather Reports


time (UTC)temp
C
wind
direction
speed
KPH
gust
KPH
rain 1hr
cm
rain 24hr
cm
rain mn
cm
humidity
%
barometer
mb
20260507154504 11 185 4.8 12.9 0.00 3.38 0.86 75 1001.8
20260507153007 10 284 3.2 12.9 0.00 3.40 0.86 75 1002.0
20260507151516 10 246 4.8 11.3 0.00 3.40 0.86 76 1002.0
20260507150016 9 339 3.2 11.3 0.00 3.40 0.86 78 1001.9
20260507144504 9 40 3.2 11.3 0.00 3.40 0.86 80 1002.1
20260507143011 9 351 4.8 14.5 0.00 3.40 0.86 81 1002.3
20260507141516 8 225 4.8 14.5 0.00 3.40 0.86 87 1002.4
20260507140019 7 294 4.8 14.5 0.00 3.40 0.86 89 1002.4
20260507134520 7 277 3.2 11.3 0.00 3.40 0.86 89 1002.8
20260507133002 7 241 3.2 6.4 0.00 3.40 0.86 90 1002.5
20260507131516 6 301 8.0 14.5 0.00 3.40 0.86 89 1002.3
20260507130011 6 271 3.2 9.7 0.00 3.40 0.86 90 1002.7
20260507124520 6 309 3.2 11.3 0.00 3.40 0.86 92 1002.8
20260507123021 6 306 6.4 14.5 0.00 3.40 0.86 91 1002.7
20260507121508 6 289 4.8 11.3 0.00 3.40 0.86 93 1002.9
20260507120010 6 289 3.2 9.7 0.00 3.40 0.86 94 1002.7
20260507114515 6 312 1.6 9.7 0.00 3.40 0.86 94 1002.7
20260507113037 5 290 6.4 14.5 0.00 3.43 0.86 95 1002.2
20260507111525 5 305 3.2 9.7 0.00 3.45 0.86 95 1002.1
20260507110028 5 309 6.4 12.9 0.00 3.48 0.86 95 1002.4
20260507104513 5 285 3.2 6.4 0.03 3.48 0.86 96 1002.5
20260507103018 5 263 0.0 12.9 0.05 3.51 0.86 96 1002.7
20260507101520 5 310 3.2 11.3 0.05 3.53 0.86 96 1002.3
20260507100026 5 311 3.2 11.3 0.10 3.58 0.86 95 1002.0
20260507094533 5 304 3.2 12.9 0.10 3.58 0.84 95 1002.0
20260507093013 5 302 4.8 12.9 0.08 3.61 0.81 95 1001.9
20260507091523 5 309 4.8 16.1 0.10 3.63 0.81 95 1001.9
20260507090023 5 323 8.0 14.5 0.08 3.61 0.76 95 1001.8
20260507084534 5 313 8.0 14.5 0.05 3.61 0.74 96 1001.7
20260507083030 6 300 4.8 16.1 0.05 3.63 0.74 96 1001.6
20260507081520 6 306 8.0 16.1 0.05 3.61 0.71 96 1001.7
20260507080021 6 331 6.4 12.9 0.08 3.66 0.69 96 1001.5
20260507074523 6 294 6.4 17.7 0.10 3.71 0.69 96 1001.5
20260507073029 6 309 8.0 16.1 0.13 3.76 0.69 96 1001.4
20260507071530 6 329 4.8 14.5 0.18 3.81 0.66 96 1001.6
20260507070021 6 300 3.2 11.3 0.23 3.86 0.61 96 1001.8
20260507064525 6 296 4.8 14.5 0.28 3.96 0.58 96 1001.7
20260507063028 6 302 4.8 11.3 0.30 3.99 0.56 96 1001.6
20260507061529 6 315 4.8 9.7 0.25 3.91 0.48 96 1002.1
20260507060027 6 308 4.8 9.7 0.20 3.81 0.38 96 1002.0
20260507054520 7 325 3.2 6.4 0.15 3.73 0.30 96 1002.2
20260507053024 7 307 4.8 12.9 0.15 3.68 0.25 97 1002.3
20260507051528 7 339 4.8 14.5 0.18 3.66 0.23 97 1002.3
20260507050031 7 314 4.8 14.5 0.18 3.61 0.18 97 1002.1
20260507044527 7 346 4.8 16.1 0.23 3.58 0.15 97 1002.1
20260507043029 7 290 4.8 11.3 0.18 3.53 0.10 97 1002.3
20260507041526 7 307 3.2 11.3 0.15 3.48 0.05 97 1002.4
20260507040028 7 341 0.0 4.8 0.13 3.43 0.00 97 1002.4
20260507034535 7 339 1.6 6.4 0.05 3.35 3.35 97 1002.4
20260507033028 7 352 4.8 8.0 0.08 3.35 3.35 97 1002.6
20260507031533 7 352 0.0 3.2 0.10 3.33 3.33 97 1002.7
20260507030027 7 314 0.0 4.8 0.15 3.30 3.30 97 1002.9
20260507024528 7 340 1.6 6.4 0.18 3.30 3.30 97 1003.1
20260507023006 7 47 1.6 4.8 0.18 3.28 3.28 97 1003.3
20260507021503 7 334 1.6 6.4 0.13 3.23 3.23 97 1003.9
20260507020006 7 330 3.2 8.0 0.08 3.15 3.15 97 1004.2
20260507014509 7 311 3.2 9.7 0.05 3.12 3.12 97 1004.2
20260507013020 7 350 3.2 6.4 0.03 3.10 3.10 97 1004.2
20260507011506 7 342 3.2 8.0 0.05 3.10 3.10 97 1004.4
20260507010006 7 327 1.6 4.8 0.05 3.07 3.07 97 1004.6
20260507004511 7 343 3.2 6.4 0.08 3.07 3.07 97 1004.7
20260507003011 7 344 0.0 4.8 0.10 3.07 3.07 97 1004.7
20260507001544 7 309 1.6 4.8 0.13 3.05 3.05 96 1004.6
20260507000012 7 309 0.0 1.6 0.15 3.02 3.02 97 1004.6
20260506234506 7 309 0.0 4.8 0.18 2.97 2.97 96 1004.7
20260506233009 7 352 0.0 3.2 0.23 2.95 2.95 96 1004.6
20260506231511 7 275 0.0 4.8 0.23 2.92 2.92 96 1004.7
20260506230017 7 344 1.6 3.2 0.25 2.87 2.87 96 1004.6
20260506224522 7 334 0.0 4.8 0.28 2.84 2.82 96 1004.7
20260506223006 8 352 3.2 8.0 0.25 2.82 2.74 96 1004.8
20260506221508 8 347 1.6 4.8 0.25 2.77 2.67 96 1005.0
20260506220016 7 346 1.6 4.8 0.23 2.79 2.62 96 1005.1
20260506214521 7 21 0.0 3.2 0.20 2.74 2.54 96 1005.2
20260506213024 8 302 4.8 6.4 0.18 2.77 2.49 96 1005.4
20260506211508 8 346 1.6 4.8 0.20 3.10 2.44 96 1005.3
20260506210024 8 342 0.0 4.8 0.30 3.05 2.39 96 1005.6
20260506204518 8 360 0.0 4.8 0.33 2.97 2.34 95 1005.3
20260506203022 7 59 1.6 4.8 0.41 2.95 2.31 95 1005.5
20260506201526 8 319 1.6 11.3 0.41 2.90 2.24 95 1006.1
20260506200008 8 11 1.6 6.4 0.28 2.74 2.08 95 1005.6
20260506194516 8 88 1.6 4.8 0.23 2.64 2.01 95 1005.6
20260506193029 8 344 0.0 4.8 0.18 2.57 1.91 95 1006.4
20260506191521 8 335 0.0 8.0 0.13 2.49 1.83 95 1006.4
20260506190031 8 313 3.2 6.4 0.15 2.46 1.80 95 1006.7
20260506184513 8 5 0.0 11.3 0.18 2.44 1.78 95 1006.5
20260506183015 8 323 4.8 8.0 0.15 2.39 1.73 94 1006.7
20260506181534 8 135 1.6 6.4 0.18 2.36 1.70 95 1006.5
20260506180027 8 321 1.6 3.2 0.28 2.31 1.65 94 1007.5
20260506174527 8 330 0.0 6.4 0.36 2.26 1.60 94 1007.4
20260506173014 8 313 0.0 3.2 0.51 2.24 1.57 94 1007.9
20260506171504 8 336 1.6 4.8 0.46 2.18 1.52 94 1008.1
20260506170003 8 302 0.0 4.8 0.38 2.03 1.37 94 1008.5
20260506164517 9 258 0.0 3.2 0.33 1.91 1.24 93 1008.2
20260506163007 9 173 0.0 4.8 0.18 1.73 1.07 92 1007.8
20260506161504 9 58 1.6 4.8 0.18 1.73 1.07 91 1007.5
20260506160003 9 145 0.0 3.2 0.10 1.65 0.99 92 1008.9